Weather History for Hayward, WI

Change the Weather History Date:

Tuesday, December 25, 2012

  Actual Average Record
Temperature  
Mean Temperature 2 °F -  
Max Temperature 14 °F 19 °F 37 °F (1999)
Min Temperature -9 °F 0 °F -27 °F (2000)
Degree Days  
Heating Degree Days 62    
Moisture  
Dew Point -8 °F    
Average Humidity 75    
Maximum Humidity 84    
Minimum Humidity 59    
Precipitation  
Precipitation 0.00 in - - ()
Sea Level Pressure  
Sea Level Pressure 30.41 in    
Wind  
Wind Speed 0 mph (West)    
Max Wind Speed 5 mph    
Max Gust Speed -    
Visibility 10 miles    
Events      
Averages and records for this station are not official NWS values.
T = Trace of Precipitation, MM = Missing Value Source: NWS Daily Summary

Daily Weather History Graph

Daily Weather History Graph

Search for Another Location

Airport:

Trip Planner

Search our weather history database for the weather conditions in past years. The results will help you decide how hot, cold, wet, or windy it might be!

Date:

Astronomy

Dec. 25, 2012 Rise Set
Actual Time 7:46 AM CST 4:25 PM CST
Civil Twilight 7:12 AM CST 5:00 PM CST
Nautical Twilight 6:34 AM CST 5:38 PM CST
Astronomical Twilight 5:57 AM CST 6:14 PM CST
Moon 2:36 PM CST (12/25) 5:16 AM CST (12/25)
Length of Visible Light 9h 48m
Length of Day
8h 39m
Waxing Gibbous, 94% of the Moon is Illuminated
Dec 25
Waxing Gibbous
Dec 28
Full
Jan 4
Last Quarter
Jan 11
New
Jan 18
First Quarter

Hourly Weather History & Observations

Time (CST) Temp. Windchill Dew Point Humidity Pressure Visibility Wind Dir Wind Speed Gust Speed Precip Events Conditions
12:01 AM -4.0 °F - -9.4 °F 78% 30.22 in 10.0 mi Calm Calm - N/A   Mostly Cloudy
12:51 AM -4.0 °F - -9.4 °F 78% 30.23 in 10.0 mi Calm Calm - N/A   Scattered Clouds
12:53 AM -4.0 °F - -9.0 °F 79% 30.32 in 10.0 mi Calm Calm - N/A   Scattered Clouds
1:53 AM -5.1 °F - -9.9 °F 80% 30.34 in 10.0 mi Calm Calm - N/A   Partly Cloudy
2:53 AM -6.0 °F - -11.9 °F 75% 30.36 in 10.0 mi Calm Calm - N/A   Clear
3:00 AM -5.8 °F - -11.2 °F 77% 30.27 in 10.0 mi Calm Calm - N/A   Partly Cloudy
3:33 AM -7.6 °F - -13.0 °F 77% 30.28 in 10.0 mi Calm Calm - N/A   Mostly Cloudy
3:42 AM -5.8 °F - -11.2 °F 77% 30.28 in 10.0 mi Calm Calm - N/A   Scattered Clouds
3:53 AM -7.1 °F - -11.9 °F 79% 30.38 in 10.0 mi Calm Calm - N/A   Partly Cloudy
4:28 AM -7.6 °F - -11.2 °F 84% 30.30 in 10.0 mi Calm Calm - N/A   Mostly Cloudy
4:53 AM -7.1 °F - -11.9 °F 79% 30.41 in 10.0 mi Calm Calm - N/A   Mostly Cloudy
5:53 AM -6.0 °F - -13.0 °F 72% 30.44 in 10.0 mi Calm Calm - N/A   Overcast
6:42 AM -7.6 °F - -11.2 °F 84% 30.34 in 10.0 mi Calm Calm - N/A   Partly Cloudy
6:53 AM -7.1 °F - -11.9 °F 79% 30.46 in 10.0 mi Calm Calm - N/A   Partly Cloudy
7:09 AM -7.6 °F - -14.8 °F 71% 30.34 in 10.0 mi Calm Calm - N/A   Mostly Cloudy
7:31 AM -7.6 °F - -14.8 °F 71% 30.35 in 10.0 mi Calm Calm - N/A   Scattered Clouds
7:53 AM -9.0 °F - -14.1 °F 79% 30.48 in 10.0 mi Calm Calm - N/A   Clear
8:53 AM -2.9 °F - -8.0 °F 79% 30.49 in 10.0 mi Calm Calm - N/A   Clear
9:53 AM -0.0 °F - -5.1 °F 79% 30.51 in 10.0 mi Calm Calm - N/A   Clear
10:53 AM 3.9 °F - -2.0 °F 76% 30.50 in 10.0 mi Calm Calm - N/A   Clear
11:53 AM 8.1 °F - -0.0 °F 70% 30.48 in 10.0 mi Calm Calm - N/A   Clear
12:53 PM 10.9 °F 4.7 °F 1.0 °F 64% 30.47 in 10.0 mi West 3.5 mph - N/A   Clear
1:53 PM 12.9 °F 5.2 °F 1.9 °F 62% 30.48 in 10.0 mi WSW 4.6 mph - N/A   Clear
2:53 PM 14.0 °F 8.2 °F 1.9 °F 59% 30.47 in 10.0 mi West 3.5 mph - N/A   Clear
3:53 PM 12.9 °F - 1.0 °F 59% 30.46 in 10.0 mi Calm Calm - N/A   Clear
4:53 PM 7.0 °F - -0.0 °F 73% 30.47 in 10.0 mi Calm Calm - N/A   Clear
5:53 PM 3.0 °F - -2.0 °F 80% 30.49 in 10.0 mi Calm Calm - N/A   Clear
6:53 PM -0.0 °F - -7.1 °F 72% 30.53 in 10.0 mi Calm Calm - N/A   Clear
7:53 PM -2.9 °F - -9.0 °F 75% 30.54 in 10.0 mi Calm Calm - N/A   Clear
8:53 PM -4.0 °F - -9.9 °F 76% 30.53 in 10.0 mi Calm Calm - N/A   Clear
9:53 PM -5.1 °F - -9.9 °F 80% 30.50 in 10.0 mi Calm Calm - N/A   Clear
10:53 PM -7.1 °F - -13.0 °F 75% 30.49 in 10.0 mi Calm Calm - N/A   Clear
11:53 PM -7.1 °F - -14.1 °F 72% 30.47 in 10.0 mi Calm Calm - N/A   Clear